Location: Vigo di Fassa
(46.4167°N, 11.6667°E)
Time: 06:59:07
(UTC+00:00)

Cosmos 192 - Visible Passes

Search period start: 16 June 2021 00:00
Search period end: 26 June 2021 00:00
Orbit: 702 x 712 km, 74.0° (Epoch: 15 June)

Date Brightness Start Highest point End Pass type
(mag) Time Alt. Az. Time Alt. Az. Time Alt. Az.
16 Jun 4.3 22:54:35 44° S 22:56:07 78° ESE 23:01:04 10° NNE visible
17 Jun 6.6 00:34:16 10° W 00:37:29 17° NW 00:40:42 10° N visible
17 Jun 5.3 21:59:58 28° SE 22:01:03 31° ESE 22:05:22 10° NE visible
17 Jun 5.6 23:38:56 20° WSW 23:41:43 35° WNW 23:46:15 10° N visible
18 Jun 6.3 21:05:19 12° ESE 21:06:16 13° E 21:08:24 10° ENE visible
18 Jun 4.3 22:44:16 37° SSW 22:46:16 82° WNW 22:51:14 10° NNE visible
19 Jun 6.8 00:25:20 10° WNW 00:27:51 14° NW 00:30:23 10° NNW visible
19 Jun 4.9 21:49:35 32° SE 21:51:06 41° ESE 21:55:43 10° NE visible
19 Jun 6.0 23:28:31 14° WSW 23:31:59 28° WNW 23:36:14 10° N visible
20 Jun 6.0 20:54:50 15° ESE 20:56:14 17° E 20:59:21 10° ENE visible
20 Jun 4.6 22:33:47 26° SW 22:36:27 63° WNW 22:41:21 10° NNE visible
21 Jun 7.0 00:16:48 10° WNW 00:18:15 11° NW 00:19:41 10° NNW visible
21 Jun 4.5 21:38:59 30° SSE 21:41:12 53° ESE 21:46:00 10° NNE visible
21 Jun 6.4 23:18:24 10° WSW 23:22:17 23° NW 23:26:10 10° N visible
22 Jun 5.7 20:44:07 17° SE 20:46:15 22° E 20:49:59 10° NE visible
22 Jun 5.1 22:23:03 17° SW 22:26:39 49° WNW 22:31:26 10° NNE visible
23 Jun 4.3 21:28:06 21° S 21:31:19 70° ESE 21:36:14 10° NNE visible
23 Jun 6.7 23:09:12 10° W 23:12:37 18° NW 23:16:01 10° N visible
24 Jun 5.3 20:33:04 15° SSE 20:36:17 28° E 20:40:29 10° NE visible
24 Jun 5.6 22:12:17 10° SW 22:16:52 38° WNW 22:21:29 10° N visible
25 Jun 4.3 21:16:50 12° SSW 21:21:27 89° W 21:26:24 10° NNE visible
25 Jun 7.0 23:00:11 10° W 23:02:58 15° NW 23:05:45 10° NNW visible
